Regional Weather Roundup
Issued by NWS

Home | Current Version | Previous Version | Graphics & Text | Print | Product List | Glossary On
Versions: 1 2 3 4 5 6 7 8 9 10 11 12 13 14 15 16 17 18 19 20 21 22 23 24 25 26 27 28 29 30 31 32 33 34 35 36 37 38 39 40 41 42 43 44 45 46 47 48 49 50
000
ASUS44 KMEG 230810
RWRTN
TENNESSEE HOURLY STATE WEATHER ROUNDUP
NATIONAL WEATHER SERVICE MEMPHIS TN
300 AM CDT SAT JUL 23 2016

TNZ002-004-019-021-049-052-054-088>092-230900-
WEST TENNESSEE

CITY           SKY/WX    TMP DP  RH WIND       PRES   REMARKS
MEMPHIS INTL   CLOUDY    83  72  69 NE9       29.97S THUNDER
NWS MEMPHIS      N/A     78 N/A N/A MISG        N/A
JACKSON        CLOUDY    75  74  96 CALM      29.99F
DYERSBURG      CLOUDY    73  72  94 MISG      29.98F
UNION CITY     CLEAR     75  73  94 CALM      29.97F
PARIS          CLEAR     72  72 100 E3        29.99F
LEXINGTON      CLEAR     73  73 100 CALM      29.99S
$$

TNZ008-025-027-028-033-062-065-066-230900-
NORTH MIDDLE TENNESSEE

CITY           SKY/WX    TMP DP  RH WIND       PRES   REMARKS
NASHVILLE      CLOUDY    78  72  81 NW6       30.01S
CLARKSVILLE    CLOUDY    74  72  93 CALM      30.01S
SMYRNA         MOCLDY    79  76  90 N6        30.01S
COOKEVILLE       N/A     73  73 100 CALM      30.01F VSB 1
CROSSVILLE     CLOUDY    75  73  93 CALM      30.08S FOG
$$

TNZ061-075-076-078-094-096-097-230900-
SOUTH MIDDLE TENNESSEE

CITY           SKY/WX    TMP DP  RH WIND       PRES   REMARKS
FAYETTEVILLE   PTCLDY    75  72  88 CALM      30.01F
TULLAHOMA      CLEAR     73  73 100 CALM      30.02F
WINCHESTER     CLEAR     75  72  88 W3        30.02S
MCMINNVILLE    CLEAR     73  73 100 CALM      30.02F
COLUMBIA       CLEAR    N/A N/A N/A CALM      30.00S
SHELBYVILLE    CLEAR     75  75 100 CALM      30.00F
$$

TNZ017-018-042-046-047-230900-
NORTHEAST TENNESSEE

CITY           SKY/WX    TMP DP  RH WIND       PRES   REMARKS
TRI CITIES     PTCLDY    71  68  90 NE3       30.07S
ELIZABETHTON   PTCLDY    72  66  83 CALM      30.07S
$$

TNZ012-013-036-069-073-074-230900-
CENTRAL EAST TENNESSEE

CITY           SKY/WX    TMP DP  RH WIND       PRES   REMARKS
KNOXVILLE      CLOUDY    80  71  74 CALM      30.01
OAK RIDGE      CLOUDY    79  73  82 CALM      30.04R
GATLINBURG     CLEAR     73  70  88 SE3       30.02S
MORRISTOWN     MOCLDY    75  72  88 CALM      30.04S
$$

TNZ083-085-099-230900-
SOUTHEAST TENNESSEE

CITY           SKY/WX    TMP DP  RH WIND       PRES   REMARKS
CHATTANOOGA    CLOUDY    79  71  76 CALM      30.01S
$$

SKY/WX REPORTED AS FAIR MEANS FEW OR NO CLOUDS BELOW
12 THOUSAND FEET.





USA.gov is the U.S. government's official web portal to all federal, state and local government web resources and services.